Deelen, Netherlands

4:55 AM CEST on October 19, 2017 (GMT +0200)
Deelen Air Base

Weather History for EHDL - May, 2013

Change the Weather History Date:

Monday, May 6, 2013

  Actual Average Record
Temperature  
Mean Temperature 60 °F -  
Max Temperature 77 °F 64 °F 77 °F (2006)
Min Temperature 44 °F 49 °F 35 °F (2007)
Degree Days  
Heating Degree Days 4    
Growing Degree Days 10 (Base 50)    
Moisture  
Dew Point 45 °F    
Average Humidity 60    
Maximum Humidity 93    
Minimum Humidity 27    
Precipitation  
Precipitation 0.00 in - - ()
Sea Level Pressure  
Sea Level Pressure 30.10 in    
Wind  
Wind Speed 6 mph ()    
Max Wind Speed 14 mph    
Max Gust Speed -    
Visibility 5.9 miles    
Events      
Averages and records for this station are not official NWS values.
T = Trace of Precipitation, MM = Missing Value Source: Averaged Metar Reports

Daily Weather History Graph

Daily Weather History Graph

Search for Another Location

Airport or City:

Trip Planner

Search our weather history database for the weather conditions in past years. The results will help you decide how hot, cold, wet, or windy it might be!

Date:

Astronomy

May. 06, 2013 Rise Set
Actual Time 5:57 AM CEST 9:10 PM CEST
Civil Twilight 5:17 AM CEST 9:50 PM CEST
Nautical Twilight 4:24 AM CEST 10:43 PM CEST
Astronomical Twilight 3:13 AM CEST 11:56 PM CEST
Moon 4:17 AM CEST (5/6) 5:31 PM CEST (5/6)
Length of Visible Light 16h 33m
Length of Day
15h 12m
Waning Crescent, 13% of the Moon is Illuminated
May 6
Waning Crescent
May 10
New
May 18
First Quarter
May 25
Full
May 31
Last Quarter

Hourly Weather History & Observations

Time (CEST) Temp. Dew Point Humidity Pressure Visibility Wind Dir Wind Speed Gust Speed Precip Events Conditions
12:25 AM 51.8 °F 46.4 °F 82% 30.21 in 6.2 mi NE 11.5 mph - N/A   Unknown
12:55 AM 51.8 °F 46.4 °F 82% 30.21 in 6.2 mi NE 10.4 mph - N/A   Unknown
1:25 AM 51.8 °F 46.4 °F 82% 30.18 in 6.2 mi ENE 9.2 mph - N/A   Unknown
1:55 AM 51.8 °F 46.4 °F 82% 30.18 in 6.2 mi ENE 8.1 mph - N/A   Partly Cloudy
2:25 AM 50.0 °F 46.4 °F 87% 30.18 in 6.2 mi ENE 5.8 mph - N/A   Partly Cloudy
2:55 AM 50.0 °F 46.4 °F 87% 30.18 in 5.6 mi ENE 5.8 mph - N/A   Mist
3:25 AM 50.0 °F 46.4 °F 87% 30.18 in 5.6 mi ENE 3.5 mph - N/A   Mist
3:55 AM 48.2 °F 46.4 °F 93% 30.15 in 5.0 mi East 3.5 mph - N/A   Mist
4:25 AM 48.2 °F 46.4 °F 93% 30.15 in 4.3 mi East 3.5 mph - N/A   Partly Cloudy
4:55 AM 48.2 °F 44.6 °F 87% 30.15 in 3.7 mi South 1.2 mph - N/A   Mist
5:25 AM 48.2 °F 44.6 °F 87% 30.15 in 3.1 mi ESE 1.2 mph - N/A   Mist
5:55 AM 48.2 °F 44.6 °F 87% 30.15 in - SSE 2.3 mph - N/A   Mist
6:25 AM 44.6 °F 42.8 °F 93% 30.15 in - SE 2.3 mph - N/A   Partly Cloudy
6:55 AM 46.4 °F 44.6 °F 93% 30.15 in - ESE 1.2 mph - N/A   Partly Cloudy
7:25 AM 50.0 °F 46.4 °F 87% 30.15 in 3.7 mi East 1.2 mph - N/A   Partly Cloudy
7:55 AM 53.6 °F 46.4 °F 77% 30.15 in 5.6 mi East 2.3 mph - N/A   Haze
8:25 AM 57.2 °F 46.4 °F 67% 30.15 in 6.2 mi East 4.6 mph - N/A   Partly Cloudy
8:55 AM 60.8 °F 46.4 °F 59% 30.15 in 6.2 mi East 5.8 mph - N/A   Unknown
9:25 AM 62.6 °F 46.4 °F 55% 30.15 in 6.2 mi East 5.8 mph - N/A   Unknown
9:55 AM 64.4 °F 46.4 °F 52% 30.15 in 6.2 mi ENE 5.8 mph - N/A   Partly Cloudy
10:25 AM 68.0 °F 48.2 °F 49% 30.12 in 6.2 mi ENE 5.8 mph - N/A   Partly Cloudy
10:55 AM 68.0 °F 42.8 °F 40% 30.12 in 6.2 mi ENE 10.4 mph - N/A   Unknown
11:25 AM 69.8 °F 44.6 °F 40% 30.12 in 6.2 mi NE 6.9 mph - N/A   Unknown
11:44 AM 69.8 °F 42.8 °F 38% 30.12 in 6.2 mi ENE 6.9 mph - N/A   Unknown
11:55 AM 71.6 °F 44.6 °F 38% 30.12 in 6.2 mi NNE 5.8 mph - N/A   Partly Cloudy
12:25 PM 71.6 °F 46.4 °F 41% 30.09 in 6.2 mi ENE 4.6 mph - N/A   Partly Cloudy
12:55 PM 71.6 °F 44.6 °F 38% 30.09 in 6.2 mi NNE 5.8 mph - N/A   Mostly Cloudy
1:25 PM 73.4 °F 41.0 °F 31% 30.09 in 6.2 mi SE 6.9 mph - N/A   Scattered Clouds
1:55 PM 75.2 °F 41.0 °F 29% 30.09 in 6.2 mi East 4.6 mph - N/A   Mostly Cloudy
2:25 PM 75.2 °F 41.0 °F 29% 30.09 in 6.2 mi SSE 8.1 mph - N/A   Mostly Cloudy
2:55 PM 77.0 °F 42.8 °F 29% 30.06 in 6.2 mi South 5.8 mph - N/A   Mostly Cloudy
3:14 PM 75.2 °F 41.0 °F 29% 30.06 in 6.2 mi ENE 6.9 mph - N/A   Mostly Cloudy
3:25 PM 73.4 °F 39.2 °F 29% 30.06 in 6.2 mi East 5.8 mph - N/A   Partly Cloudy
3:55 PM 73.4 °F 39.2 °F 29% 30.06 in 6.2 mi SE 4.6 mph - N/A   Partly Cloudy
4:25 PM 73.4 °F 39.2 °F 29% 30.06 in 6.2 mi SE 2.3 mph - N/A   Mostly Cloudy
4:55 PM 75.2 °F 39.2 °F 27% 30.04 in 6.2 mi WSW 3.5 mph - N/A   Mostly Cloudy
5:25 PM 73.4 °F 44.6 °F 36% 30.04 in 6.2 mi East 4.6 mph - N/A   Mostly Cloudy
5:55 PM 71.6 °F 44.6 °F 38% 30.04 in 6.2 mi ENE 4.6 mph - N/A   Mostly Cloudy
6:25 PM 71.6 °F 46.4 °F 41% 30.04 in 6.2 mi NNW 10.4 mph - N/A   Overcast
6:55 PM 71.6 °F 46.4 °F 41% 30.04 in 6.2 mi NNW 13.8 mph - N/A   Mostly Cloudy
7:25 PM 69.8 °F 46.4 °F 43% 30.04 in 6.2 mi NNW 13.8 mph - N/A   Partly Cloudy
7:55 PM 68.0 °F 46.4 °F 46% 30.04 in 6.2 mi NNW 8.1 mph - N/A   Unknown
8:25 PM 66.2 °F 48.2 °F 52% 30.04 in 6.2 mi NNW 9.2 mph - N/A   Unknown
8:55 PM 64.4 °F 50.0 °F 59% 30.04 in 6.2 mi NNW 9.2 mph - N/A   Scattered Clouds
9:25 PM 62.6 °F 50.0 °F 63% 30.04 in 6.2 mi NNW 6.9 mph - N/A   Scattered Clouds
9:55 PM 60.8 °F 50.0 °F 68% 30.04 in 6.2 mi NNW 6.9 mph - N/A   Partly Cloudy
10:25 PM 55.4 °F 50.0 °F 82% 30.04 in 6.2 mi NNW 4.6 mph - N/A   Unknown
10:55 PM 53.6 °F 48.2 °F 82% 30.04 in 6.2 mi North 2.3 mph - N/A   Unknown
11:25 PM 55.4 °F 50.0 °F 82% 30.04 in 6.2 mi NW 3.5 mph - N/A   Partly Cloudy
11:55 PM 51.8 °F 46.4 °F 82% 30.04 in 6.2 mi NW 2.3 mph - N/A   Unknown